Hatteras, NC

12:25 PM EDT on October 14, 2019 (GMT -0400)
Mitchell

Weather History for KHSE - August, 2019

Change the Weather History Date:

Wednesday, August 14, 2019

  Actual Average Record
Temperature  
Mean Temperature 86 °F 79 °F  
Max Temperature 91 °F 84 °F 90 °F (1965)
Min Temperature 82 °F 73 °F 57 °F (1964)
Degree Days  
Heating Degree Days 0 0  
Month to date heating degree days 0 0  
Since 1 June heating degree days 0 3  
Since 1 July heating degree days 0 0  
Cooling Degree Days 22 14  
Month to date cooling degree days 239 196  
Year to date cooling degree days 1539 1084  
Since 1 June cooling degree days 1157 941  
Growing Degree Days 36 (Base 50)    
Moisture  
Dew Point 79 °F    
Average Humidity 83    
Maximum Humidity 94    
Minimum Humidity 72    
Precipitation  
Precipitation 0.01 in 0.21 in 1.50 in (2001)
Month to date precipitation 2.60 2.90  
Year to date precipitation 34.32 33.16  
Snow  
Snow 0.00 in - - ()
Month to date snowfall 0.0  
Since 1 July snowfall 0.0  
Snow Depth 0.00 in    
Sea Level Pressure  
Sea Level Pressure 29.87 in    
Wind  
Wind Speed 10 mph ()    
Max Wind Speed 17 mph    
Max Gust Speed 23 mph    
Visibility 8.8 miles    
Events Thunderstorm    
T = Trace of Precipitation, MM = Missing Value Source: Averaged Metar Reports

Daily Weather History Graph

Daily Weather History Graph

Search for Another Location

Airport or City:

Astronomy

Aug. 14, 2019 Rise Set
Actual Time 6:21 AM EDT 7:52 PM EDT
Civil Twilight 5:54 AM EDT 8:19 PM EDT
Nautical Twilight 5:21 AM EDT 8:51 PM EDT
Astronomical Twilight 4:47 AM EDT 9:25 PM EDT
Moon 7:42 PM EDT 5:20 AM EDT
Length of Visible Light 14h 25m
Length of Day
13h 31m
Waxing Gibbous, 99% of the Moon is Illuminated
Aug 14
Waxing Gibbous
Aug 15
Full
Aug 23
Last Quarter
Aug 30
New
Sep 5
First Quarter

Hourly Weather History & Observations

Time (EDT) Temp. Heat Index Dew Point Humidity Pressure Visibility Wind Dir Wind Speed Gust Speed Precip Events Conditions
12:51 AM 82.9 °F 91.8 °F 77.0 °F 82% 29.87 in 10.0 mi WSW 13.8 mph - N/A   Clear
1:51 AM 82.9 °F 92.8 °F 78.1 °F 85% 29.86 in 10.0 mi WSW 11.5 mph - N/A   Clear
2:51 AM 82.9 °F 92.8 °F 78.1 °F 85% 29.84 in 10.0 mi SW 11.5 mph - N/A   Clear
3:51 AM 82.9 °F 93.8 °F 79.0 °F 88% 29.85 in 10.0 mi WSW 11.5 mph - N/A   Clear
4:51 AM 82.9 °F 93.8 °F 79.0 °F 88% 29.86 in 9.0 mi WSW 9.2 mph - N/A   Scattered Clouds
5:51 AM 82.9 °F 93.8 °F 79.0 °F 88% 29.87 in 9.0 mi WSW 10.4 mph - N/A   Partly Cloudy
6:51 AM 82.9 °F 93.8 °F 79.0 °F 88% 29.88 in 8.0 mi WSW 10.4 mph - N/A   Mostly Cloudy
7:02 AM 82.9 °F 93.8 °F 79.0 °F 88% 29.88 in 8.0 mi WSW 10.4 mph 17.3 mph N/A Thunderstorm Scattered Clouds
7:17 AM 82.9 °F 93.8 °F 79.0 °F 88% 29.88 in 8.0 mi WSW 8.1 mph - N/A   Mostly Cloudy
7:51 AM 82.9 °F 93.8 °F 79.0 °F 88% 29.89 in 8.0 mi WSW 9.2 mph - N/A   Overcast
8:51 AM 84.0 °F 93.7 °F 77.0 °F 79% 29.88 in 10.0 mi West 9.2 mph 16.1 mph 0.00 in   Overcast
9:51 AM 87.1 °F 98.8 °F 77.0 °F 72% 29.88 in 10.0 mi WSW 10.4 mph - 0.00 in   Clear
10:51 AM 88.0 °F 101.3 °F 78.1 °F 72% 29.87 in 10.0 mi SW 8.1 mph - N/A   Clear
11:51 AM 89.1 °F 106.4 °F 80.1 °F 75% 29.86 in 10.0 mi SSW 12.7 mph - N/A   Clear
12:51 PM 90.0 °F 107.9 °F 80.1 °F 73% 29.87 in 10.0 mi SW 10.4 mph - N/A   Clear
1:51 PM 90.0 °F 107.9 °F 80.1 °F 73% 29.87 in 10.0 mi SW 11.5 mph 16.1 mph N/A   Clear
2:51 PM 88.0 °F 104.3 °F 80.1 °F 77% 29.86 in 10.0 mi SSW 13.8 mph - N/A   Partly Cloudy
3:51 PM 86.0 °F 100.8 °F 80.1 °F 82% 29.86 in 8.0 mi SW 10.4 mph - N/A   Partly Cloudy
4:51 PM 87.1 °F 103.2 °F 80.1 °F 80% 29.85 in 9.0 mi SW 11.5 mph - N/A   Clear
5:51 PM 86.0 °F 100.8 °F 80.1 °F 82% 29.83 in 8.0 mi SW 12.7 mph 19.6 mph N/A   Clear
6:51 PM 84.0 °F 96.0 °F 79.0 °F 85% 29.85 in 8.0 mi SW 11.5 mph 18.4 mph N/A   Overcast
7:51 PM 84.0 °F 96.0 °F 79.0 °F 85% 29.87 in 8.0 mi SW 15.0 mph 21.9 mph N/A   Clear
8:51 PM 84.0 °F 98.1 °F 81.0 °F 90% 29.88 in 7.0 mi SW 11.5 mph - N/A   Partly Cloudy
9:51 PM 82.9 °F 94.8 °F 80.1 °F 91% 29.88 in 7.0 mi SW 10.4 mph - 0.01 in   Clear
10:51 PM 82.9 °F 94.8 °F 80.1 °F 91% 29.90 in 7.0 mi SW 6.9 mph - N/A   Scattered Clouds
11:51 PM 82.9 °F 94.8 °F 80.1 °F 91% 29.92 in 7.0 mi WSW 9.2 mph - N/A   Mostly Cloudy